JANET44 KXTA-KLAS

Flight info

Callsign JANET44
Flight time 0h 22m
Altitude 16000
Route TOMBA1 BGZEE EXITT JAYSN JAYSN3
Aircraft B736/M-SDE2E3FGHIRWXY/LB1

Departure

Time 2026-05-07 00:33
Airport Homey (Area 51) Airport (KXTA)

Arrival

Time 2026-05-07 00:56
Airport Harry Reid International Airport (KLAS)
Time Latitude Longitude Altitude Speed Heading
2026-05-07 00:17 37.23906 -115.81195 4441 ft 0 kts 85°
2026-05-07 00:27 37.23907 -115.81185 4443 ft 4 kts 90°
2026-05-07 00:27 37.23896 -115.81156 4440 ft 0 kts 131°
2026-05-07 00:28 37.23845 -115.81137 4439 ft 11 kts 179°
2026-05-07 00:28 37.23761 -115.81115 4439 ft 13 kts 165°
2026-05-07 00:28 37.23659 -115.81128 4439 ft 18 kts 177°
2026-05-07 00:28 37.23536 -115.81104 4439 ft 18 kts 190°
2026-05-07 00:29 37.23420 -115.81049 4440 ft 20 kts 141°
2026-05-07 00:29 37.23306 -115.80929 4440 ft 23 kts 140°
2026-05-07 00:30 37.22884 -115.80469 4439 ft 29 kts 139°
2026-05-07 00:30 37.22728 -115.80299 4439 ft 29 kts 138°
2026-05-07 00:30 37.22569 -115.80125 4439 ft 31 kts 139°
2026-05-07 00:30 37.22402 -115.79944 4439 ft 32 kts 140°
2026-05-07 00:31 37.22232 -115.79759 4439 ft 32 kts 140°
2026-05-07 00:31 37.22066 -115.79579 4439 ft 32 kts 139°
2026-05-07 00:31 37.21907 -115.79397 4439 ft 26 kts 131°
2026-05-07 00:31 37.21895 -115.79305 4439 ft 6 kts 71°
2026-05-07 00:32 37.21913 -115.79248 4440 ft 15 kts 69°
2026-05-07 00:32 37.21898 -115.79057 4440 ft 25 kts 107°
2026-05-07 00:32 37.21854 -115.78847 4440 ft 25 kts 103°
2026-05-07 00:32 37.21807 -115.78639 4440 ft 25 kts 104°
2026-05-07 00:33 37.21857 -115.78475 4439 ft 13 kts 21°
2026-05-07 00:33 37.21966 -115.78517 4439 ft 46 kts 338°
2026-05-07 00:33 37.22586 -115.78842 4441 ft 145 kts 338°
2026-05-07 00:33 37.23697 -115.79421 5087 ft 177 kts 339°
2026-05-07 00:34 37.24878 -115.80174 6004 ft 202 kts 331°
2026-05-07 00:34 37.26119 -115.81075 6835 ft 218 kts 327°
2026-05-07 00:34 37.27406 -115.82322 7582 ft 248 kts 323°
2026-05-07 00:34 37.28853 -115.83726 8339 ft 278 kts 324°
2026-05-07 00:35 37.30423 -115.85382 9108 ft 315 kts 313°
2026-05-07 00:35 37.31436 -115.87917 9900 ft 338 kts 284°
2026-05-07 00:35 37.31468 -115.90938 10632 ft 356 kts 261°
2026-05-07 00:35 37.30562 -115.93868 11504 ft 365 kts 240°
2026-05-07 00:36 37.28901 -115.96248 12485 ft 372 kts 219°
2026-05-07 00:36 37.26639 -115.97860 13512 ft 377 kts 200°
2026-05-07 00:36 37.24065 -115.98533 14482 ft 379 kts 186°
2026-05-07 00:36 37.21431 -115.98820 15437 ft 381 kts 183°
2026-05-07 00:37 37.18778 -115.99066 16405 ft 384 kts 183°
2026-05-07 00:37 37.16052 -115.99358 16867 ft 402 kts 184°
2026-05-07 00:37 37.13195 -115.99717 16985 ft 424 kts 186°
2026-05-07 00:37 37.10254 -116.00577 16995 ft 443 kts 198°
2026-05-07 00:38 37.07376 -116.02124 16989 ft 458 kts 208°
2026-05-07 00:38 37.04653 -116.04219 16995 ft 461 kts 213°
2026-05-07 00:38 37.01975 -116.06430 16975 ft 461 kts 213°
2026-05-07 00:38 36.99284 -116.08610 16972 ft 461 kts 213°
2026-05-07 00:39 36.96564 -116.10752 16976 ft 461 kts 212°
2026-05-07 00:39 36.93707 -116.12565 16963 ft 461 kts 199°
2026-05-07 00:39 36.90651 -116.13362 16974 ft 460 kts 183°
2026-05-07 00:39 36.87461 -116.13229 16975 ft 457 kts 168°
2026-05-07 00:40 36.84364 -116.12376 16961 ft 455 kts 164°
2026-05-07 00:40 36.81281 -116.11451 16957 ft 455 kts 164°
2026-05-07 00:40 36.78191 -116.10541 16959 ft 456 kts 165°
2026-05-07 00:40 36.75083 -116.09653 16955 ft 456 kts 165°
2026-05-07 00:41 36.71989 -116.08794 16959 ft 456 kts 165°
2026-05-07 00:41 36.68879 -116.07953 16967 ft 457 kts 166°
2026-05-07 00:41 36.65773 -116.07114 16963 ft 456 kts 166°
2026-05-07 00:41 36.62665 -116.06269 16972 ft 457 kts 165°
2026-05-07 00:42 36.59666 -116.05041 16968 ft 452 kts 149°
2026-05-07 00:42 36.57240 -116.02767 16995 ft 442 kts 131°
2026-05-07 00:42 36.55343 -115.99784 16968 ft 437 kts 117°
2026-05-07 00:42 36.54122 -115.96373 16976 ft 430 kts 105°
2026-05-07 00:43 36.53223 -115.92815 16978 ft 431 kts 104°
2026-05-07 00:43 36.52311 -115.89260 16979 ft 434 kts 105°
2026-05-07 00:43 36.51372 -115.85673 16984 ft 434 kts 103°
2026-05-07 00:43 36.50916 -115.81986 16991 ft 428 kts 88°
2026-05-07 00:44 36.50928 -115.78335 16986 ft 428 kts 86°
2026-05-07 00:44 36.50930 -115.74635 16965 ft 428 kts 88°
2026-05-07 00:44 36.50877 -115.70940 16969 ft 427 kts 88°
2026-05-07 00:44 36.50787 -115.67239 16993 ft 428 kts 90°
2026-05-07 00:45 36.50209 -115.63608 16970 ft 435 kts 108°
2026-05-07 00:45 36.48896 -115.60192 16941 ft 439 kts 113°
2026-05-07 00:45 36.47554 -115.56797 16420 ft 437 kts 112°
2026-05-07 00:45 36.46254 -115.53396 15667 ft 432 kts 113°
2026-05-07 00:46 36.44695 -115.50257 14829 ft 431 kts 126°
2026-05-07 00:46 36.42798 -115.47496 14045 ft 427 kts 128°
2026-05-07 00:46 36.40897 -115.44745 13177 ft 423 kts 128°
2026-05-07 00:46 36.39060 -115.41996 12278 ft 404 kts 127°
2026-05-07 00:47 36.37349 -115.39386 11444 ft 385 kts 127°
2026-05-07 00:47 36.35710 -115.36870 10564 ft 370 kts 127°
2026-05-07 00:47 36.34115 -115.34419 9738 ft 358 kts 126°
2026-05-07 00:47 36.32866 -115.31817 8844 ft 346 kts 109°
2026-05-07 00:48 36.32235 -115.28996 8049 ft 335 kts 97°
2026-05-07 00:48 36.32022 -115.26162 7210 ft 326 kts 90°
2026-05-07 00:48 36.31941 -115.23377 6518 ft 318 kts 90°
2026-05-07 00:48 36.31862 -115.20722 6319 ft 300 kts 90°
2026-05-07 00:49 36.31777 -115.18196 6177 ft 287 kts 91°
2026-05-07 00:49 36.31685 -115.15781 6052 ft 274 kts 91°
2026-05-07 00:49 36.31595 -115.13470 5954 ft 261 kts 91°
2026-05-07 00:49 36.31509 -115.11289 5953 ft 246 kts 91°
2026-05-07 00:50 36.31429 -115.09227 5951 ft 232 kts 91°
2026-05-07 00:50 36.31319 -115.07261 5962 ft 228 kts 99°
2026-05-07 00:50 36.30570 -115.05607 5967 ft 226 kts 140°
2026-05-07 00:50 36.29101 -115.04929 5962 ft 230 kts 181°
2026-05-07 00:51 36.27605 -115.05484 5979 ft 224 kts 208°
2026-05-07 00:51 36.26259 -115.06313 5876 ft 212 kts 206°
2026-05-07 00:51 36.24936 -115.07075 5595 ft 206 kts 206°
2026-05-07 00:51 36.23644 -115.07814 5288 ft 203 kts 205°
2026-05-07 00:52 36.22365 -115.08546 5014 ft 201 kts 205°
2026-05-07 00:52 36.21097 -115.09273 4732 ft 200 kts 205°
2026-05-07 00:52 36.19854 -115.09984 4430 ft 193 kts 205°
2026-05-07 00:52 36.18672 -115.10660 4204 ft 180 kts 205°
2026-05-07 00:53 36.17584 -115.11283 3983 ft 162 kts 205°
2026-05-07 00:53 36.16642 -115.11826 3855 ft 138 kts 204°
2026-05-07 00:53 36.15824 -115.12300 3666 ft 128 kts 204°
2026-05-07 00:53 36.15012 -115.12760 3491 ft 129 kts 204°
2026-05-07 00:54 36.14178 -115.13237 3309 ft 132 kts 203°
2026-05-07 00:54 36.13343 -115.13712 3117 ft 133 kts 204°
2026-05-07 00:54 36.12511 -115.14192 2909 ft 132 kts 203°
2026-05-07 00:54 36.11677 -115.14671 2669 ft 133 kts 203°
2026-05-07 00:55 36.10853 -115.15142 2433 ft 128 kts 202°
2026-05-07 00:55 36.10049 -115.15602 2201 ft 124 kts 202°
2026-05-07 00:55 36.09351 -115.16012 2129 ft 106 kts 201°
2026-05-07 00:55 36.08789 -115.16318 2128 ft 64 kts 205°
2026-05-07 00:56 36.08525 -115.16499 2138 ft 24 kts 213°
2026-05-07 00:56 36.08449 -115.16574 2142 ft 16 kts 220°
2026-05-07 00:56 36.08388 -115.16673 2151 ft 12 kts 284°
2026-05-07 00:56 36.08433 -115.16674 2151 ft 6 kts 23°
2026-05-07 00:57 36.08473 -115.16650 2150 ft 10 kts 27°
2026-05-07 00:57 36.08576 -115.16587 2146 ft 19 kts 25°
2026-05-07 00:57 36.08719 -115.16509 2142 ft 25 kts 24°
2026-05-07 00:57 36.08900 -115.16405 2134 ft 31 kts 24°
2026-05-07 00:58 36.09071 -115.16311 2130 ft 27 kts 25°
2026-05-07 00:58 36.09239 -115.16206 2123 ft 28 kts 25°
2026-05-07 00:58 36.09414 -115.16117 2118 ft 23 kts
2026-05-07 00:58 36.09407 -115.16203 2126 ft 13 kts 212°
2026-05-07 00:59 36.09263 -115.16286 2129 ft 14 kts 200°